Weather History for Doha International Airport, Qatar

Change the Weather History Date:

Thursday, October 31, 2013

  Actual Average Record
Temperature  
Mean Temperature 82 °F -  
Max Temperature 89 °F 85 °F - ()
Min Temperature 76 °F 67 °F - ()
Cooling Degree Days 18    
Growing Degree Days 32 (Base 50)    
Moisture  
Dew Point 67 °F    
Average Humidity 60    
Maximum Humidity 83    
Minimum Humidity 38    
Precipitation  
Precipitation 0.00 in 0.00 in - ()
Sea Level Pressure  
Sea Level Pressure 29.99 in    
Wind  
Wind Speed 6 mph ()    
Max Wind Speed 12 mph    
Max Gust Speed -    
Visibility 8.4 miles    
Events      
T = Trace of Precipitation, MM = Missing Value Source: Averaged Metar Reports

Daily Weather History Graph

Daily Weather History Graph

Search for Another Location

Airport:

Trip Planner

Search our weather history database for the weather conditions in past years. The results will help you decide how hot, cold, wet, or windy it might be!

Date:

Astronomy

Oct. 31, 2013 Rise Set
Actual Time 5:40 AM AST 4:53 PM AST
Civil Twilight 5:17 AM AST 5:17 PM AST
Nautical Twilight 4:50 AM AST 5:44 PM AST
Astronomical Twilight 4:23 AM AST 6:11 PM AST
Moon 2:26 AM AST (10/31) 2:41 PM AST (10/31)
Length of Visible Light 11h 59m
Length of Day
11h 12m
Waning Crescent, 12% of the Moon is Illuminated
Oct 31
Waning Crescent
Nov 3
New
Nov 10
First Quarter
Nov 17
Full
Nov 25
Last Quarter

Hourly Weather History & Observations

Time (AST) Temp. Heat Index Dew Point Humidity Pressure Visibility Wind Dir Wind Speed Gust Speed Precip Events Conditions
12:00 AM 78.8 °F - 62.6 °F 57% 30.01 in - NW 5.8 mph - N/A   Clear
12:30 AM 78.8 °F - 64.4 °F 61% 29.98 in - NW 4.6 mph - N/A   Clear
1:00 AM 78.8 °F - 62.6 °F 57% 29.98 in - NW 5.8 mph - N/A   Clear
1:30 AM 78.8 °F - 62.6 °F 57% 29.98 in - WNW 5.8 mph - N/A   Clear
2:00 AM 78.8 °F - 62.6 °F 57% 29.98 in - NNW 8.1 mph - N/A   Clear
2:30 AM 78.8 °F - 62.6 °F 57% 29.98 in - NNW 8.1 mph - N/A   Clear
3:00 AM 79 °F - 64 °F 50% 29.98 in 9 mi NNW 8.1 mph - -  
3:00 AM 78.8 °F - 64.4 °F 61% 29.98 in - NNW 8.1 mph - N/A   Clear
3:30 AM 78.8 °F - 64.4 °F 61% 29.98 in - NNW 8.1 mph - N/A   Clear
4:00 AM 78.8 °F - 64.4 °F 61% 29.98 in - NNW 8.1 mph - N/A   Clear
4:30 AM 77.0 °F - 66.2 °F 69% 29.98 in - NNW 8.1 mph - N/A   Clear
5:00 AM 77.0 °F - 66.2 °F 69% 29.98 in - NW 4.6 mph - N/A   Clear
6:00 AM 77.0 °F - 66.2 °F 69% 30.01 in - NW 3.5 mph - N/A   Clear
6:30 AM 78.8 °F - 66.2 °F 65% 30.01 in - NNW 4.6 mph - N/A   Clear
7:00 AM 78.8 °F - 66.2 °F 65% 30.04 in - NNW 9.2 mph - N/A   Clear
7:30 AM 80.6 °F 82.7 °F 66.2 °F 61% 30.04 in - NNW 10.4 mph - N/A   Clear
8:00 AM 82.4 °F 84.6 °F 66.2 °F 58% 30.04 in - NNW 10.4 mph - N/A   Clear
8:30 AM 84.2 °F 86.6 °F 66.2 °F 55% 30.04 in - NNW 10.4 mph - N/A   Clear
9:00 AM 84 °F - 66 °F 46% 30.05 in 6 mi North 9.2 mph - -   Clear
9:00 AM 84.2 °F 86.6 °F 66.2 °F 55% 30.04 in - North 9.2 mph - N/A   Clear
9:30 AM 86.0 °F 88.2 °F 66.2 °F 51% 30.04 in - North 8.1 mph - N/A   Clear
10:00 AM 86.0 °F 88.2 °F 66.2 °F 51% 30.04 in - NNE 11.5 mph - N/A   Clear
10:30 AM 86.0 °F 89.4 °F 68.0 °F 55% 30.01 in - North 9.2 mph - N/A   Clear
11:00 AM 87.8 °F 89.4 °F 64.4 °F 46% 30.01 in - North 8.1 mph - N/A   Clear
11:30 AM 87.8 °F 90.4 °F 66.2 °F 49% 30.01 in - North 6.9 mph - N/A   Clear
12:00 PM 87.8 °F 87.1 °F 59.0 °F 38% 29.98 in - NE 5.8 mph - N/A   Clear
12:30 PM 87.8 °F 88.5 °F 62.6 °F 43% 29.95 in - NE 4.6 mph - N/A   Clear
1:00 PM 87.8 °F 87.6 °F 60.8 °F 40% 29.95 in - NE 5.8 mph - N/A   Clear
1:30 PM 87.8 °F 88.5 °F 62.6 °F 43% 29.95 in - NE 6.9 mph - N/A   Clear
2:00 PM 87.8 °F 88.5 °F 62.6 °F 43% 29.95 in - NE 6.9 mph - N/A   Clear
2:30 PM 87.8 °F 90.4 °F 66.2 °F 49% 29.95 in - ENE 6.9 mph - N/A   Clear
3:00 PM 86 °F - 68 °F 45% 29.95 in 9 mi ENE 6.9 mph - -   Scattered Clouds
3:00 PM 86.0 °F 89.4 °F 68.0 °F 55% 29.95 in - ENE 6.9 mph - N/A   Clear
4:00 PM 84.2 °F 87.3 °F 68.0 °F 58% 29.95 in - NE 5.8 mph - N/A   Clear
5:00 PM 82.4 °F 86.3 °F 69.8 °F 66% 29.95 in - ENE 4.6 mph - N/A   Clear
6:00 PM 82 °F - 70 °F 60% 29.97 in 9 mi NNE 4.6 mph - -  
6:00 PM 82.4 °F 86.3 °F 69.8 °F 66% 29.95 in - NNE 4.6 mph - N/A   Clear
6:30 PM 82.4 °F 87.2 °F 71.6 °F 70% 29.98 in - NE 4.6 mph - N/A   Clear
7:00 PM 80.6 °F 85.4 °F 73.4 °F 79% 29.98 in - ENE 3.5 mph - N/A   Clear
8:00 PM 80.6 °F 85.4 °F 73.4 °F 79% 29.98 in - ENE 3.5 mph - N/A   Clear
9:00 PM 81 °F - 73 °F 70% 29.99 in 9 mi NE 3.5 mph - -  
9:00 PM 80.6 °F 85.4 °F 73.4 °F 79% 29.98 in - NE 3.5 mph - N/A   Clear
9:30 PM 80.6 °F 85.4 °F 73.4 °F 79% 29.98 in - East 3.5 mph - N/A   Clear
10:00 PM 78.8 °F - 73.4 °F 83% 29.98 in - Variable 2.3 mph - N/A   Clear
10:30 PM 78.8 °F - 73.4 °F 83% 29.98 in - Variable 1.2 mph - N/A   Clear
11:00 PM 78.8 °F - 73.4 °F 83% 29.98 in - Calm Calm - N/A   Clear
11:30 PM 78.8 °F - 73.4 °F 83% 29.98 in - Variable 2.3 mph - N/A   Clear